| time (UTC) | temp F | wind direction | speed MPH | gust MPH | rain 1hr in | rain 24hr in | rain mn in | humidity % | barometer mb |
| 20260831080115 | 77 | 178 | 0.0 | 0.0 | 0.00 | 0.00 | 0.00 | 62 | 1014.4 |
| 20260831074551 | 77 | 178 | 0.0 | 0.0 | 0.00 | 0.00 | 0.00 | 62 | 1014.4 |
| 20260831073110 | 77 | 178 | 0.0 | 0.0 | 0.00 | 0.00 | 0.00 | 61 | 1014.5 |
| 20260831071553 | 77 | 178 | 0.0 | 0.0 | 0.00 | 0.00 | 0.00 | 61 | 1014.6 |
| 20260831070047 | 77 | 178 | 0.0 | 0.0 | 0.00 | 0.00 | 0.00 | 61 | 1014.6 |
| 20260831064547 | 77 | 178 | 0.0 | 0.0 | 0.00 | 0.00 | 0.00 | 61 | 1014.7 |
| 20260831063046 | 77 | 136 | 0.0 | 2.0 | 0.00 | 0.00 | 0.00 | 62 | 1014.8 |
| 20260831061543 | 77 | 133 | 0.0 | 0.0 | 0.00 | 0.00 | 0.00 | 63 | 1014.9 |
| 20260831060045 | 77 | 132 | 0.0 | 0.0 | 0.00 | 0.00 | 0.00 | 64 | 1014.9 |
| 20260831054548 | 77 | 132 | 0.0 | 0.0 | 0.00 | 0.00 | 0.00 | 64 | 1014.9 |
| 20260831053044 | 77 | 132 | 0.0 | 0.0 | 0.00 | 0.00 | 0.00 | 64 | 1014.8 |
| 20260831051539 | 78 | 132 | 0.0 | 0.0 | 0.00 | 0.00 | 0.00 | 63 | 1014.8 |
| 20260831050034 | 78 | 132 | 0.0 | 0.0 | 0.00 | 0.00 | 0.00 | 63 | 1014.8 |
| 20260831044545 | 79 | 132 | 0.0 | 0.0 | 0.00 | 0.00 | 0.00 | 63 | 1014.7 |
| 20260831043033 | 79 | 132 | 0.0 | 0.0 | 0.00 | 0.00 | 0.00 | 62 | 1014.7 |
| 20260831041533 | 80 | 202 | 0.0 | 2.0 | 0.00 | 0.00 | 0.00 | 61 | 1014.7 |
| 20260831040033 | 80 | 127 | 0.0 | 4.0 | 0.00 | 0.00 | 0.00 | 61 | 1014.7 |
| 20260831034532 | 81 | 192 | 0.0 | 0.0 | 0.00 | 0.00 | 0.00 | 61 | 1014.7 |
| 20260831033038 | 81 | 140 | 0.0 | 1.0 | 0.00 | 0.00 | 0.00 | 60 | 1014.5 |
| 20260831031534 | 81 | 159 | 0.0 | 1.0 | 0.00 | 0.00 | 0.00 | 60 | 1014.5 |
| 20260831030030 | 82 | 148 | 0.0 | 0.0 | 0.00 | 0.00 | 0.00 | 59 | 1014.6 |
| 20260831024531 | 82 | 136 | 0.0 | 2.0 | 0.00 | 0.00 | 0.00 | 59 | 1014.5 |
| 20260831023030 | 83 | 144 | 0.0 | 0.0 | 0.00 | 0.00 | 0.00 | 57 | 1014.5 |
| 20260831021543 | 83 | 122 | 0.0 | 2.0 | 0.00 | 0.00 | 0.00 | 57 | 1014.4 |
| 20260831020029 | 83 | 140 | 0.0 | 0.0 | 0.00 | 0.00 | 0.00 | 56 | 1014.4 |
| 20260831014528 | 84 | 142 | 0.0 | 1.0 | 0.00 | 0.00 | 0.00 | 56 | 1014.3 |
| 20260831013028 | 85 | 168 | 0.0 | 2.0 | 0.00 | 0.00 | 0.00 | 54 | 1014.1 |
| 20260831011540 | 86 | 139 | 0.0 | 0.0 | 0.00 | 0.00 | 0.00 | 53 | 1014.0 |
| 20260831010027 | 86 | 151 | 0.0 | 3.0 | 0.00 | 0.00 | 0.00 | 51 | 1013.7 |
| 20260831004527 | 87 | 154 | 0.0 | 1.0 | 0.00 | 0.00 | 0.00 | 50 | 1013.7 |
| 20260831003026 | 88 | 142 | 0.0 | 0.0 | 0.00 | 0.00 | 0.00 | 49 | 1013.6 |
| 20260831001536 | 89 | 136 | 0.0 | 1.0 | 0.00 | 0.00 | 0.00 | 48 | 1013.7 |
| 20260831000025 | 89 | 161 | 0.0 | 11.0 | 0.00 | 0.00 | 0.00 | 46 | 1013.7 |
| 20260830234527 | 90 | 172 | 0.0 | 7.0 | 0.00 | 0.00 | 0.00 | 44 | 1013.7 |
| 20260830233024 | 91 | 194 | 0.0 | 5.0 | 0.00 | 0.00 | 0.00 | 42 | 1013.9 |
| 20260830231523 | 91 | 180 | 0.0 | 14.0 | 0.00 | 0.00 | 0.00 | 41 | 1013.8 |
| 20260830230021 | 92 | 131 | 0.0 | 11.0 | 0.00 | 0.00 | 0.00 | 41 | 1013.8 |
| 20260830224521 | 93 | 167 | 0.0 | 15.0 | 0.00 | 0.00 | 0.00 | 40 | 1013.8 |
| 20260830223022 | 94 | 123 | 1.0 | 8.0 | 0.00 | 0.00 | 0.00 | 37 | 1013.7 |
| 20260830221520 | 94 | 145 | 0.0 | 3.0 | 0.00 | 0.00 | 0.00 | 37 | 1013.7 |
| 20260830220021 | 94 | 137 | 0.0 | 11.0 | 0.00 | 0.00 | 0.00 | 36 | 1013.7 |
| 20260830214518 | 94 | 148 | 0.0 | 3.0 | 0.00 | 0.00 | 0.00 | 36 | 1013.7 |
| 20260830213017 | 95 | 132 | 0.0 | 7.0 | 0.00 | 0.00 | 0.00 | 36 | 1013.9 |
| 20260830211517 | 95 | 169 | 0.0 | 3.0 | 0.00 | 0.00 | 0.00 | 35 | 1013.9 |
| 20260830210017 | 95 | 222 | 0.0 | 4.0 | 0.00 | 0.00 | 0.00 | 36 | 1014.1 |
| 20260830204527 | 95 | 195 | 0.0 | 7.0 | 0.00 | 0.00 | 0.00 | 36 | 1014.1 |
| 20260830203012 | 95 | 123 | 0.0 | 4.0 | 0.00 | 0.00 | 0.00 | 35 | 1014.1 |
| 20260830201514 | 95 | 127 | 0.0 | 6.0 | 0.00 | 0.00 | 0.00 | 37 | 1014.4 |
| 20260830200006 | 94 | 169 | 0.0 | 3.0 | 0.00 | 0.00 | 0.00 | 38 | 1014.7 |
| 20260830194505 | 94 | 161 | 0.0 | 7.0 | 0.00 | 0.00 | 0.00 | 38 | 1014.7 |
| 20260830193004 | 94 | 230 | 0.0 | 3.0 | 0.00 | 0.00 | 0.00 | 39 | 1014.9 |
| 20260830191603 | 94 | 90 | 0.0 | 6.0 | 0.00 | 0.00 | 0.00 | 37 | 1015.0 |
| 20260830190058 | 93 | 192 | 0.0 | 1.0 | 0.00 | 0.00 | 0.00 | 40 | 1015.3 |
| 20260830184557 | 93 | 210 | 0.0 | 1.0 | 0.00 | 0.00 | 0.00 | 39 | 1015.2 |
| 20260830183053 | 92 | 169 | 0.0 | 2.0 | 0.00 | 0.00 | 0.00 | 36 | 1015.4 |
| 20260830181552 | 92 | 274 | 0.0 | 1.0 | 0.00 | 0.00 | 0.00 | 39 | 1015.6 |
| 20260830180049 | 92 | 209 | 0.0 | 3.0 | 0.00 | 0.00 | 0.00 | 40 | 1015.6 |
| 20260830174609 | 91 | 221 | 0.0 | 0.0 | 0.00 | 0.00 | 0.00 | 41 | 1015.8 |
| 20260830173042 | 90 | 175 | 0.0 | 10.0 | 0.00 | 0.00 | 0.00 | 42 | 1016.1 |
| 20260830171543 | 89 | 167 | 0.0 | 5.0 | 0.00 | 0.00 | 0.00 | 41 | 1016.2 |
| 20260830170037 | 88 | 205 | 0.0 | 4.0 | 0.00 | 0.00 | 0.00 | 41 | 1016.6 |
| 20260830164532 | 87 | 164 | 0.0 | 7.0 | 0.00 | 0.00 | 0.00 | 45 | 1016.7 |
| 20260830163040 | 87 | 17 | 0.0 | 7.0 | 0.00 | 0.00 | 0.00 | 45 | 1016.8 |
| 20260830161527 | 86 | 204 | 0.0 | 7.0 | 0.00 | 0.00 | 0.00 | 45 | 1016.8 |
| 20260830160022 | 85 | 167 | 0.0 | 5.0 | 0.00 | 0.00 | 0.00 | 49 | 1016.7 |
| 20260830154519 | 84 | 203 | 1.0 | 5.0 | 0.00 | 0.00 | 0.00 | 49 | 1016.6 |
| 20260830153029 | 84 | 155 | 0.0 | 6.0 | 0.00 | 0.00 | 0.00 | 51 | 1016.4 |
| 20260830151529 | 83 | 209 | 0.0 | 6.0 | 0.00 | 0.00 | 0.00 | 53 | 1016.2 |
| 20260830150009 | 82 | 180 | 0.0 | 4.0 | 0.00 | 0.00 | 0.00 | 55 | 1016.4 |
| 20260830144505 | 81 | 207 | 0.0 | 4.0 | 0.00 | 0.00 | 0.00 | 58 | 1016.3 |
| 20260830143002 | 80 | 197 | 0.0 | 0.0 | 0.00 | 0.00 | 0.00 | 63 | 1016.3 |
| 20260830141558 | 78 | 213 | 0.0 | 1.0 | 0.00 | 0.00 | 0.00 | 65 | 1016.2 |
| 20260830140113 | 77 | 186 | 0.0 | 2.0 | 0.00 | 0.00 | 0.00 | 69 | 1016.3 |
| 20260830134551 | 75 | 219 | 0.0 | 1.0 | 0.00 | 0.00 | 0.00 | 71 | 1016.2 |
| 20260830133050 | 74 | 203 | 1.0 | 3.0 | 0.00 | 0.00 | 0.00 | 72 | 1016.4 |
| 20260830131550 | 73 | 220 | 0.0 | 4.0 | 0.00 | 0.00 | 0.00 | 74 | 1016.5 |
| 20260830130055 | 73 | 201 | 0.0 | 0.0 | 0.00 | 0.00 | 0.00 | 75 | 1016.6 |
| 20260830124548 | 72 | 201 | 0.0 | 0.0 | 0.00 | 0.00 | 0.00 | 76 | 1016.5 |
| 20260830123052 | 72 | 201 | 0.0 | 1.0 | 0.00 | 0.00 | 0.00 | 75 | 1016.5 |
| 20260830121546 | 72 | 201 | 0.0 | 0.0 | 0.00 | 0.00 | 0.00 | 76 | 1016.4 |
| 20260830120045 | 71 | 203 | 0.0 | 0.0 | 0.00 | 0.00 | 0.00 | 76 | 1016.3 |
| 20260830114546 | 71 | 180 | 0.0 | 0.0 | 0.00 | 0.00 | 0.00 | 77 | 1016.2 |
| 20260830113051 | 70 | 180 | 0.0 | 0.0 | 0.00 | 0.00 | 0.00 | 78 | 1016.2 |
| 20260830111543 | 70 | 179 | 0.0 | 0.0 | 0.00 | 0.00 | 0.00 | 78 | 1016.1 |
| 20260830110046 | 70 | 178 | 0.0 | 0.0 | 0.00 | 0.00 | 0.00 | 79 | 1015.8 |
| 20260830104541 | 70 | 173 | 0.0 | 0.0 | 0.00 | 0.00 | 0.00 | 79 | 1015.9 |
| 20260830103043 | 70 | 173 | 0.0 | 0.0 | 0.00 | 0.00 | 0.00 | 81 | 1016.0 |
| 20260830101555 | 70 | 178 | 0.0 | 0.0 | 0.00 | 0.00 | 0.00 | 81 | 1015.8 |
| 20260830100039 | 70 | 182 | 0.0 | 0.0 | 0.00 | 0.00 | 0.00 | 81 | 1015.8 |
| 20260830094536 | 71 | 145 | 0.0 | 0.0 | 0.00 | 0.00 | 0.00 | 80 | 1015.6 |
| 20260830093034 | 71 | 203 | 0.0 | 0.0 | 0.00 | 0.00 | 0.00 | 79 | 1015.6 |
| 20260830091534 | 71 | 219 | 0.0 | 0.0 | 0.00 | 0.00 | 0.00 | 78 | 1015.7 |
| 20260830090031 | 72 | 228 | 0.0 | 0.0 | 0.00 | 0.00 | 0.00 | 78 | 1015.8 |
| 20260830084531 | 72 | 141 | 0.0 | 0.0 | 0.00 | 0.00 | 0.00 | 79 | 1015.7 |
| 20260830083030 | 72 | 194 | 0.0 | 1.0 | 0.00 | 0.00 | 0.00 | 79 | 1015.7 |
| 20260830081527 | 72 | 130 | 0.0 | 0.0 | 0.00 | 0.00 | 0.00 | 78 | 1016.2 |